Snowfall_Accumulation
0.0 0.0 0.0 0.0 0.0 0.0 0.0 0.0 0.0 0.0 0.0 0.0 0.0 0.0 0.0 0.0 0.0 0.0 0.0 0.0 0.0 0.0 0.0 0.0 0.0 0.0 0.0 0.0 0.0 0.0 0.0 0.0 0.0 0.0 0.0 0.0 0.0 0.0 0.0 0.0 0.0 0.0 0.0 0.0
0.2 0.1 0.0 0.0 0.0 0.0 0.0 0.2 0.3 0.0 0.0 0.0 0.0 0.0 0.0 0.0 0.0 0.0 0.0 0.0 0.0 0.0 0.0 0.0 0.0 0.0 0.0 0.0 0.0 0.0 0.0 0.0 0.0 0.0 0.0 0.0 0.0 0.0 0.0 0.0 0.0 0.0 0.0 0.0
0.6 0.0 0.0 0.0 0.0 0.0 0.0 0.3 0.2 0.1 0.0 0.0 0.0 0.0 0.0 0.0 0.0 0.0 0.0 0.0 0.0 0.0 0.0 0.0 0.0 0.0 0.0 0.0 0.0 0.0 0.0 0.0 0.0 0.0 0.0 0.0 0.0 0.0 0.0 0.0 0.0 0.0 0.0 0.0
0.2 0.0 0.0 0.0 0.0 0.0 0.2 0.0 0.0 0.1 0.6 0.7 0.0 1.0 0.0 0.0 0.0 0.0 0.0 0.0 0.0 0.0 0.0 0.0 0.0 0.0 0.0 0.0 0.0 0.0 0.0 0.0 0.0 0.0 0.0 0.0 0.0 0.0 0.0 0.0 0.0 0.0 0.0 0.0
0.6 0.0 0.0 0.0 0.0 0.0 0.1 0.0 0.0 0.0 0.4 0.3 0.1 0.8 0.0 0.0 0.0 0.0 0.0 0.0 0.0 0.0 0.0 0.0 0.0 0.0 0.0 0.0 0.0 0.0 0.0 0.0 0.0 0.0 0.0 0.0 0.0 0.0 0.0 0.0 0.0 0.0 0.0 0.0
0.0 0.0 0.0 0.0 0.0 0.0 0.0 0.0 0.0 0.0 0.5 5.1 0.1 0.1 0.0 0.0 0.0 0.0 0.0 0.0 0.0 0.0 0.0 0.0 0.0 0.0 0.0 0.0 0.0 0.0 0.0 0.0 0.0 0.0 0.0 0.0 0.0 0.0 0.0 0.0 0.0 0.0 0.0 0.0
0.4 0.2 0.0 0.0 0.3 0.0 0.1 0.9 14.8 17.5 21.8 7.3 0.0 0.1 0.1 0.0 0.0 0.0 0.0 0.0 0.0 0.0 0.0 0.0 0.0 0.0 0.0 0.0 0.0 0.0 0.0 0.0 0.0 0.0 0.0 0.0 0.0 0.0 0.0 0.0 0.0 0.0 0.0 0.0
6.6 12.5 0.6 0.0 0.1 0.4 0.3 0.7 6.1 6.3 6.4 2.1 0.0 0.5 0.0 0.0 0.0 0.0 0.0 0.0 0.0 0.0 0.0 0.0 0.0 0.0 0.0 0.0 0.0 0.0 0.0 0.0 0.0 0.0 0.0 0.0 0.0 0.0 0.0 0.0 0.0 0.0 0.0 0.0
6.7 4.8 0.1 0.0 0.0 0.0 1.5 2.7 0.0 2.3 2.1 2.1 0.3 0.0 0.0 0.0 0.0 0.0 0.0 0.0 0.0 0.0 0.0 0.0 0.0 0.0 0.0 0.0 0.0 0.0 0.0 0.0 0.0 0.0 0.0 0.0 0.0 0.0 0.0 0.0 0.0 0.0 0.0 0.0
5.0 8.3 2.5 0.5 0.5 0.1 0.2 0.0 3.4 4.3 11.0 4.4 1.5 0.1 0.3 0.0 0.0 0.0 0.0 0.0 0.0 0.0 0.0 0.0 0.0 0.0 0.0 0.0 0.0 0.0 0.0 0.0 0.0 0.0 0.0 0.0 0.0 0.0 0.0 0.0 0.0 0.0 0.0 0.0
3.5 3.9 6.4 1.2 2.5 0.9 0.3 2.3 0.1 0.4 1.7 5.3 4.4 0.8 0.0 0.0 0.0 0.0 0.0 0.0 0.0 0.0 0.0 0.0 0.0 0.0 0.0 0.0 0.0 0.0 0.0 0.0 0.0 0.0 0.0 0.0 0.0 0.0 0.0 0.0 0.0 0.0 0.0 0.0
0.9 2.6 5.2 6.8 1.1 0.0 0.0 0.0 0.0 2.2 3.5 1.8 2.5 1.6 0.0 0.0 0.0 0.0 0.0 0.0 0.0 0.0 0.0 0.0 0.0 0.0 0.0 0.0 0.0 0.0 0.0 0.0 0.0 0.0 0.0 0.0 0.0 0.0 0.0 0.0 0.0 0.0 0.0 0.0
0.1 4.7 10.2 10.3 4.9 0.9 2.0 0.0 0.0 0.1 0.1 1.8 5.1 1.8 0.0 0.0 0.0 0.0 0.0 0.0 0.0 0.0 0.0 0.0 0.0 0.0 0.0 0.0 0.0 0.0 0.0 0.0 0.0 0.0 0.0 0.0 0.0 0.0 0.0 0.0 0.0 0.0 0.0 0.0
nan 3.6 3.9 1.4 1.1 0.3 2.9 1.0 0.2 0.4 6.3 1.8 1.5 0.9 0.0 0.0 0.0 0.0 0.0 0.0 0.0 0.0 0.0 0.0 0.0 0.0 0.0 0.0 0.0 0.0 0.0 0.0 0.0 0.0 0.0 0.0 0.0 0.0 0.0 0.0 0.0 0.0 0.0 0.0
0.0 6.1 3.3 2.4 0.8 0.2 0.7 1.6 1.6 1.7 0.6 3.1 0.9 0.3 0.0 0.0 0.0 0.0 0.0 0.0 0.0 0.0 0.0 0.0 0.0 0.0 0.0 0.0 0.0 0.0 0.0 0.0 0.0 0.0 0.0 0.0 0.0 0.0 0.0 0.0 0.0 0.0 0.0 0.0
0.0 3.4 2.1 5.0 2.5 1.7 2.8 1.5 1.5 1.8 1.7 1.0 1.4 1.7 0.2 0.0 0.0 0.0 0.0 0.0 0.0 0.0 0.0 0.0 0.0 0.0 0.0 0.0 0.0 0.0 0.0 0.0 0.0 0.0 0.0 0.0 0.0 0.0 0.0 0.0 0.0 0.0 0.0 0.0
0.2 1.9 8.4 16.3 2.4 3.9 13.6 1.9 1.3 1.4 1.0 0.9 2.3 1.4 0.4 0.9 0.4 0.2 0.0 0.0 0.0 0.0 0.0 0.0 0.0 0.0 0.0 0.0 0.0 0.0 0.0 0.0 0.0 0.0 0.0 0.0 0.0 0.0 0.0 0.0 0.0 0.0 0.0 0.0
0.4 1.2 2.5 16.3 7.4 42.8 3.0 0.6 0.6 0.8 0.8 0.9 0.9 1.0 0.4 0.4 0.2 0.0 0.0 0.0 0.0 0.0 0.0 0.0 0.0 0.0 0.0 0.0 0.0 0.0 0.0 0.0 0.0 0.0 0.0 0.1 0.1 0.1 0.2 0.1 0.1 0.1 0.1 0.1
0.0 0.2 15.7 28.3 15.6 1.4 0.5 0.4 0.8 0.3 0.5 0.3 0.5 0.3 0.0 0.0 0.0 0.0 0.0 0.0 0.0 0.0 0.0 0.0 0.0 0.0 0.0 0.0 0.0 0.0 0.1 0.1 0.1 0.1 0.1 0.2 0.1 0.2 0.2 0.2 0.1 0.1 0.1 0.1
0.0 0.0 1.2 24.2 21.6 22.0 0.4 0.0 0.0 0.0 0.8 0.1 0.0 0.0 0.0 0.0 0.1 0.0 0.0 0.0 0.0 0.0 0.0 0.0 0.0 0.0 0.0 0.0 0.0 0.1 0.1 0.1 0.1 0.1 0.2 0.2 0.2 0.2 0.2 0.2 0.3 0.4 0.3 0.3
10.2 15.0 26.7 20.5 18.2 5.1 0.0 0.0 0.0 3.1 0.3 0.1 0.0 0.0 0.0 0.0 0.0 0.0 0.0 0.0 0.0 0.0 0.1 0.1 0.1 0.1 0.2 0.3 0.4 0.4 0.4 0.2 0.4 0.6 0.6 0.6 0.4 0.5 0.2 0.4 0.4 0.7 0.9 0.7
4.3 14.0 25.6 16.4 20.1 26.4 0.0 0.0 0.0 0.0 0.0 0.0 0.0 0.0 0.0 0.0 0.0 0.0 0.0 0.0 0.0 0.1 0.2 0.2 0.1 0.2 0.3 0.4 0.2 0.3 0.2 0.4 0.8 1.1 1.3 1.4 1.4 0.9 0.8 1.5 1.5 2.2 1.7 2.1
6.1 0.7 4.0 0.8 2.4 0.0 0.0 0.0 0.0 0.0 0.0 0.0 0.0 0.0 0.0 0.0 0.0 0.0 0.0 0.0 0.0 0.1 0.2 0.3 0.6 1.1 1.1 1.9 1.3 1.6 1.7 1.7 2.5 3.1 3.9 3.4 3.1 2.4 2.0 2.3 2.4 3.6 2.5 3.4
0.3 0.3 3.0 2.5 0.6 0.1 0.0 0.0 0.0 0.0 0.0 0.0 0.0 0.0 0.0 0.0 0.0 0.0 0.0 0.0 0.1 0.5 0.9 1.2 1.7 2.6 3.2 2.6 2.8 2.4 2.3 2.7 5.2 5.0 3.6 2.8 3.0 2.5 2.8 2.9 2.7 3.8 3.9 3.6
1.1 1.0 2.7 1.9 0.6 0.6 0.2 0.0 0.0 0.0 0.0 0.0 0.0 0.0 0.0 0.0 0.0 0.0 0.1 0.2 0.3 0.9 2.0 3.1 4.8 5.3 4.8 4.7 4.7 5.3 4.2 3.5 4.1 4.9 3.9 3.6 3.9 3.5 3.5 3.1 3.4 3.7 2.3 3.6
1.3 1.6 2.1 1.8 0.6 0.3 0.1 0.3 0.1 0.2 0.1 0.0 0.1 0.3 0.4 0.3 0.3 0.7 1.0 0.7 1.0 1.8 2.3 3.4 3.9 4.0 4.6 5.4 5.7 6.7 6.8 5.0 5.1 3.8 5.0 4.0 4.2 3.9 3.7 4.5 5.0 nan nan nan
Water_Equivalent
0.00 0.00 0.01 0.00 0.00 0.00 0.00 0.00 0.00 0.00 0.00 0.00 0.00 0.00 0.00 0.00 0.00 0.00 0.00 0.00 0.00 0.00 0.00 0.00 0.00 0.00 0.00 0.00 0.00 0.00 0.00 0.00 0.00 0.00 0.00 0.00 0.00 0.00 0.00 0.00 0.00 0.00 0.00 0.00
0.06 0.02 0.00 0.00 0.00 0.00 0.00 0.05 0.05 0.00 0.00 0.00 0.00 0.00 0.00 0.00 0.00 0.00 0.00 0.00 0.00 0.00 0.00 0.00 0.00 0.00 0.00 0.00 0.00 0.00 0.00 0.00 0.00 0.00 0.00 0.00 0.00 0.00 0.00 0.00 0.00 0.00 0.00 0.00
0.15 0.00 0.00 0.00 0.00 0.00 0.00 0.06 0.04 0.01 0.00 0.00 0.00 0.00 0.00 0.00 0.00 0.00 0.00 0.00 0.00 0.00 0.00 0.00 0.00 0.00 0.00 0.00 0.00 0.00 0.00 0.00 0.00 0.00 0.00 0.00 0.00 0.00 0.00 0.00 0.00 0.00 0.00 0.00
0.05 0.00 0.00 0.00 0.00 0.00 0.05 0.00 0.00 0.02 0.13 0.11 0.00 0.16 0.00 0.00 0.00 0.00 0.00 0.00 0.00 0.00 0.00 0.00 0.00 0.00 0.00 0.00 0.00 0.00 0.00 0.00 0.00 0.00 0.00 0.00 0.00 0.00 0.00 0.00 0.00 0.00 0.00 0.00
0.13 0.00 0.00 0.00 0.00 0.00 0.01 0.00 0.00 0.01 0.07 0.04 0.02 0.11 0.00 0.00 0.00 0.00 0.00 0.00 0.00 0.00 0.00 0.00 0.00 0.00 0.00 0.00 0.00 0.00 0.00 0.00 0.00 0.00 0.00 0.00 0.00 0.00 0.00 0.00 0.00 0.00 0.00 0.00
0.00 0.00 0.00 0.00 0.00 0.00 0.00 0.00 0.00 0.01 0.09 1.05 0.02 0.02 0.00 0.00 0.00 0.00 0.00 0.00 0.00 0.00 0.00 0.00 0.00 0.00 0.00 0.00 0.00 0.00 0.00 0.00 0.00 0.00 0.00 0.00 0.00 0.00 0.00 0.00 0.00 0.00 0.00 0.00
0.13 0.04 0.00 0.00 0.04 0.01 0.01 0.19 2.65 3.15 3.85 1.26 0.00 0.02 0.02 0.00 0.00 0.00 0.00 0.00 0.00 0.00 0.00 0.00 0.00 0.00 0.00 0.00 0.00 0.00 0.00 0.00 0.00 0.00 0.00 0.00 0.00 0.00 0.00 0.00 0.00 0.00 0.00 0.00
1.22 2.16 0.12 0.00 0.02 0.10 0.05 0.14 1.13 0.82 0.91 0.34 0.00 0.08 0.00 0.00 0.00 0.00 0.00 0.00 0.00 0.00 0.00 0.00 0.00 0.00 0.00 0.00 0.00 0.00 0.00 0.00 0.00 0.00 0.00 0.00 0.00 0.00 0.00 0.00 0.00 0.00 0.00 0.00
1.10 0.77 0.03 0.00 0.00 0.01 0.24 0.53 0.00 0.40 0.43 0.42 0.07 0.00 0.00 0.00 0.00 0.00 0.00 0.00 0.00 0.00 0.00 0.00 0.00 0.00 0.00 0.00 0.00 0.00 0.00 0.00 0.00 0.00 0.00 0.00 0.00 0.00 0.00 0.00 0.00 0.00 0.00 0.00
0.99 1.15 0.58 0.10 0.09 0.02 0.04 0.00 0.73 0.90 1.71 0.67 0.38 0.01 0.04 0.01 0.00 0.00 0.00 0.00 0.00 0.00 0.00 0.00 0.00 0.00 0.00 0.00 0.00 0.00 0.00 0.00 0.00 0.00 0.00 0.00 0.00 0.00 0.00 0.00 0.00 0.00 0.00 0.00
0.97 0.61 1.04 0.25 0.59 0.23 0.07 0.46 0.03 0.11 0.46 0.83 0.80 0.09 0.00 0.00 0.00 0.00 0.00 0.00 0.00 0.00 0.00 0.00 0.00 0.00 0.00 0.00 0.00 0.00 0.00 0.00 0.00 0.00 0.00 0.00 0.00 0.00 0.00 0.00 0.00 0.00 0.00 0.00
0.20 0.42 0.89 1.05 0.26 0.00 0.00 0.00 0.01 0.45 0.69 0.34 0.44 0.24 0.00 0.00 0.00 0.00 0.00 0.00 0.00 0.00 0.00 0.00 0.00 0.00 0.00 0.00 0.00 0.00 0.00 0.00 0.00 0.00 0.00 0.00 0.00 0.00 0.00 0.00 0.00 0.00 0.00 0.00
0.01 0.95 1.83 1.69 0.85 0.20 0.45 0.00 0.00 0.01 0.02 0.27 0.97 0.23 0.00 0.00 0.00 0.00 0.00 0.00 0.00 0.00 0.00 0.00 0.00 0.00 0.00 0.00 0.00 0.00 0.00 0.00 0.00 0.00 0.00 0.00 0.00 0.00 0.00 0.00 0.00 0.00 0.00 0.00
nan 0.64 0.58 0.22 0.18 0.07 0.52 0.21 0.05 0.06 1.37 0.31 0.28 0.14 0.00 0.00 0.00 0.00 0.00 0.00 0.00 0.00 0.00 0.00 0.00 0.00 0.00 0.00 0.00 0.00 0.00 0.00 0.00 0.00 0.00 0.00 0.00 0.00 0.00 0.00 0.00 0.00 0.00 0.00
0.01 1.19 0.60 0.43 0.15 0.05 0.13 0.29 0.32 0.35 0.12 0.57 0.15 0.07 0.01 0.00 0.00 0.00 0.00 0.00 0.00 0.00 0.00 0.00 0.00 0.00 0.00 0.00 0.00 0.00 0.00 0.00 0.00 0.00 0.00 0.00 0.00 0.00 0.00 0.00 0.00 0.00 0.00 0.00
0.00 0.82 0.33 0.86 0.39 0.29 0.41 0.22 0.28 0.34 0.32 0.21 0.28 0.33 0.04 0.00 0.00 0.00 0.00 0.00 0.00 0.00 0.00 0.00 0.00 0.00 0.00 0.00 0.00 0.00 0.00 0.00 0.00 0.00 0.00 0.00 0.00 0.00 0.00 0.00 0.00 0.00 0.00 0.00
0.04 0.45 2.42 3.74 0.35 0.59 2.37 0.26 0.19 0.21 0.17 0.16 0.39 0.25 0.07 0.19 0.08 0.03 0.00 0.00 0.00 0.00 0.00 0.00 0.00 0.00 0.00 0.00 0.00 0.00 0.00 0.00 0.00 0.00 0.00 0.00 0.00 0.01 0.00 0.00 0.00 0.01 0.00 0.00
0.10 0.25 0.76 3.70 1.86 6.86 0.50 0.10 0.10 0.11 0.13 0.15 0.14 0.16 0.07 0.08 0.04 0.00 0.00 0.00 0.00 0.00 0.00 0.00 0.00 0.00 0.00 0.00 0.00 0.00 0.00 0.00 0.00 0.00 0.01 0.03 0.03 0.03 0.04 0.04 0.03 0.03 0.02 0.02
0.00 0.06 3.18 5.16 2.99 0.21 0.08 0.07 0.11 0.03 0.07 0.05 0.08 0.05 0.01 0.00 0.00 0.00 0.00 0.00 0.00 0.00 0.00 0.00 0.00 0.00 0.00 0.00 0.00 0.01 0.02 0.03 0.03 0.03 0.03 0.04 0.04 0.05 0.04 0.05 0.04 0.03 0.03 0.03
0.00 0.00 0.29 5.05 4.64 3.20 0.06 0.00 0.00 0.00 0.15 0.02 0.00 0.00 0.00 0.00 0.01 0.01 0.00 0.00 0.00 0.00 0.00 0.00 0.01 0.01 0.00 0.00 0.00 0.02 0.03 0.03 0.03 0.03 0.04 0.04 0.04 0.06 0.05 0.04 0.07 0.08 0.07 0.08
2.63 3.81 5.71 4.39 3.86 1.17 0.01 0.00 0.00 0.53 0.05 0.02 0.00 0.00 0.00 0.00 0.00 0.00 0.00 0.00 0.00 0.00 0.02 0.02 0.03 0.02 0.05 0.08 0.09 0.08 0.08 0.05 0.07 0.12 0.11 0.11 0.09 0.12 0.06 0.09 0.10 0.16 0.22 0.15
0.80 2.76 5.12 3.23 3.98 4.24 0.00 0.00 0.00 0.00 0.01 0.01 0.00 0.00 0.00 0.00 0.00 0.00 0.00 0.00 0.01 0.02 0.03 0.03 0.03 0.04 0.04 0.06 0.05 0.06 0.05 0.08 0.15 0.19 0.22 0.25 0.32 0.22 0.18 0.44 0.34 0.56 0.41 0.49
1.16 0.16 1.02 0.18 0.64 0.00 0.00 0.00 0.00 0.00 0.01 0.01 0.00 0.00 0.00 0.00 0.00 0.00 0.00 0.00 0.00 0.01 0.03 0.05 0.09 0.15 0.14 0.26 0.20 0.22 0.23 0.24 0.33 0.51 0.73 0.69 0.62 0.56 0.54 0.71 0.56 0.84 0.64 0.80
0.06 0.09 0.78 0.61 0.15 0.02 0.01 0.00 0.00 0.00 0.00 0.00 0.00 0.00 0.00 0.00 0.00 0.00 0.00 0.00 0.01 0.07 0.12 0.15 0.21 0.28 0.31 0.28 0.31 0.31 0.28 0.32 0.98 0.95 0.55 0.44 0.55 0.47 0.55 0.69 0.72 1.03 0.93 0.80
0.24 0.22 0.51 0.41 0.11 0.11 0.04 0.01 0.00 0.00 0.00 0.00 0.00 0.00 0.00 0.00 0.00 0.00 0.03 0.05 0.04 0.10 0.20 0.31 0.43 0.44 0.43 0.38 0.37 0.49 0.42 0.44 0.59 0.70 0.41 0.49 0.65 0.69 0.47 0.42 0.71 0.70 0.43 0.86
0.20 0.22 0.39 0.40 0.10 0.06 0.02 0.06 0.03 0.02 0.01 0.01 0.02 0.04 0.06 0.05 0.05 0.09 0.12 0.08 0.11 0.19 0.23 0.30 0.33 0.31 0.34 0.41 0.45 0.59 0.75 0.68 0.70 0.44 0.61 0.56 0.58 0.53 0.50 0.59 0.67 nan nan nan
SL_Ratio
nan 10.0 6.0 nan nan nan nan nan nan nan nan nan nan nan nan nan nan nan nan nan nan nan nan nan nan nan nan nan nan nan nan nan nan nan nan nan nan nan nan nan nan nan nan nan
3.7 4.3 nan nan nan nan nan 4.1 4.9 nan nan nan nan nan nan nan nan nan nan nan nan nan nan nan nan nan nan nan nan nan nan nan nan nan nan nan nan nan nan nan nan nan nan nan
4.3 nan nan nan nan nan 3.0 5.2 5.8 5.8 nan nan nan nan nan nan nan nan nan nan nan nan nan nan nan nan nan nan nan nan nan nan nan nan nan nan nan nan nan nan nan nan nan nan
5.0 nan nan nan nan nan 3.4 nan nan 3.6 4.4 6.3 nan 5.9 nan nan nan nan nan nan nan nan nan nan nan nan nan nan nan nan nan nan nan nan nan nan nan nan nan nan nan nan nan nan
4.2 nan 4.2 5.0 nan nan 5.3 nan nan 5.0 5.4 6.0 5.0 6.9 nan nan nan nan nan nan nan nan nan nan nan nan nan nan nan nan nan nan nan nan nan nan nan nan nan nan nan nan nan nan
5.0 nan nan nan nan nan nan 2.5 nan 5.0 5.8 4.8 5.8 5.0 4.2 nan nan nan nan nan nan nan nan nan nan nan nan nan nan nan nan nan nan nan nan nan nan nan nan nan nan nan nan nan
3.2 5.1 nan nan 6.3 5.5 5.9 4.9 5.6 5.6 5.7 5.8 nan 6.4 5.7 nan nan nan nan nan nan nan nan nan nan nan nan nan nan nan nan nan nan nan nan nan nan nan nan nan nan nan nan nan
5.4 5.8 4.8 nan 5.6 4.5 6.4 4.5 5.4 7.7 7.0 6.1 0.0 5.7 nan nan nan nan nan nan nan nan nan nan nan nan nan nan nan nan nan nan nan nan nan nan nan nan nan nan nan nan nan nan
6.1 6.2 3.0 nan nan 5.4 6.4 5.1 4.3 5.7 4.9 5.0 3.7 5.0 nan nan nan nan nan nan nan nan nan nan nan nan nan nan nan nan nan nan nan nan nan nan nan nan nan nan nan nan nan nan
5.0 7.2 4.3 5.4 5.6 5.9 3.9 nan 4.6 4.8 6.4 6.5 3.8 6.3 6.7 2.5 0.0 nan nan nan nan nan nan nan nan nan nan nan nan nan nan nan nan nan nan nan nan nan nan nan nan nan nan nan
3.6 6.5 6.2 4.9 4.3 3.7 3.9 4.9 4.7 3.2 3.8 6.3 5.5 8.7 5.0 5.0 nan nan nan nan nan nan nan nan nan nan nan nan nan nan nan nan nan nan nan nan nan nan nan nan nan nan nan nan
4.4 6.2 5.8 6.5 4.4 2.5 nan nan 5.0 4.7 5.0 5.3 5.5 6.7 nan nan nan nan nan nan nan nan nan nan nan nan nan nan nan nan nan nan nan nan nan nan nan nan nan nan nan nan nan nan
3.8 5.0 5.6 6.1 5.8 4.5 4.4 nan 5.0 5.9 3.6 6.7 5.3 7.6 nan nan nan nan nan nan nan nan nan nan nan nan nan nan nan nan nan nan nan nan nan nan nan nan nan nan nan nan nan nan
nan 5.6 6.7 6.3 6.1 4.5 5.7 5.0 4.3 6.1 4.6 5.8 5.5 6.4 nan nan nan nan nan nan nan nan nan nan nan nan nan nan nan nan nan nan nan nan nan nan nan nan nan nan nan nan nan nan
3.8 5.1 5.6 5.7 5.4 5.3 5.6 5.5 4.9 4.8 4.8 5.4 6.1 4.2 5.0 nan nan nan nan nan nan nan nan nan nan nan nan nan nan nan nan nan nan nan nan nan nan nan nan nan nan nan nan nan
nan 4.2 6.3 5.9 6.4 5.7 6.8 6.9 5.2 5.4 5.2 4.9 5.0 5.3 4.3 nan nan nan nan nan nan nan nan nan nan nan nan nan nan nan nan nan nan nan nan nan nan nan nan nan nan nan nan nan
4.8 4.4 3.5 4.4 6.9 6.7 5.7 7.2 6.7 6.7 6.3 5.9 6.0 5.4 5.5 4.9 4.6 5.5 nan nan nan nan nan nan nan nan nan nan nan nan nan nan nan nan nan 2.5 2.9 2.6 2.5 3.0 2.5 2.5 5.0 3.0
4.5 4.8 3.3 4.4 4.0 6.2 6.0 6.0 5.9 6.8 6.4 6.0 6.2 6.2 5.4 5.2 5.6 5.7 nan nan nan nan nan nan nan nan nan nan nan nan nan nan nan 2.5 3.1 2.9 3.1 3.4 3.8 3.8 3.8 3.8 3.6 3.5
nan 3.7 4.9 5.5 5.2 6.8 7.1 6.3 7.1 7.5 8.0 6.0 6.4 6.0 5.4 nan nan nan nan nan nan nan nan nan nan nan nan nan nan 3.2 3.9 3.9 3.7 3.7 4.0 4.1 3.9 3.7 4.0 3.7 4.0 4.3 3.9 3.8
5.0 4.3 4.0 4.8 4.7 6.9 7.3 nan nan 5.7 5.5 6.3 6.7 7.5 nan nan 6.0 5.4 nan nan nan nan nan nan 3.5 3.4 4.0 4.0 5.0 3.6 4.3 4.2 4.4 4.4 4.3 4.0 3.9 3.7 4.1 4.2 4.4 4.5 4.0 4.3
3.9 3.9 4.7 4.7 4.7 4.4 2.5 nan nan 5.8 6.2 2.6 nan nan nan nan nan nan nan nan nan 5.0 3.5 3.9 4.3 3.5 4.1 4.4 4.6 4.7 4.8 4.9 4.8 5.1 5.4 4.9 4.6 4.0 4.1 4.3 4.5 4.4 4.1 4.5
5.4 5.1 5.0 5.1 5.1 6.2 1.7 5.0 2.5 2.9 2.5 2.5 nan nan nan nan nan nan nan nan 4.4 5.0 6.1 6.3 4.9 6.1 6.3 6.2 5.3 5.4 5.3 5.4 5.7 6.0 6.1 5.6 4.3 4.2 4.3 3.4 4.5 3.9 4.0 4.2
5.3 4.1 3.9 4.5 3.7 0.0 nan 2.5 nan nan 2.3 3.1 nan nan nan nan nan nan nan nan 6.7 7.4 7.4 7.6 6.4 7.1 8.0 7.2 6.7 7.2 7.4 7.3 7.7 6.0 5.3 4.9 5.0 4.2 3.8 3.3 4.3 4.3 3.9 4.2
4.1 4.0 3.8 4.2 3.8 3.2 3.1 nan nan nan nan nan nan nan nan nan nan nan nan 5.0 7.3 7.6 7.7 7.9 8.0 9.0 10.2 9.3 9.2 7.7 8.2 8.3 5.3 5.3 6.5 6.5 5.5 5.3 5.1 4.2 3.8 3.7 4.2 4.5
4.6 4.5 5.2 4.5 5.3 5.0 3.8 2.9 nan nan nan nan nan nan nan nan nan nan 3.9 4.8 6.6 8.4 10.1 10.0 11.2 11.9 11.3 12.4 12.4 10.8 10.1 7.9 6.9 7.0 9.3 7.4 5.9 5.1 7.4 7.4 4.8 5.3 5.5 4.2
6.5 7.2 5.3 4.5 5.6 5.1 3.8 4.6 5.1 6.4 6.3 4.2 4.6 6.4 6.6 6.5 6.8 7.6 8.2 8.4 8.8 9.5 10.0 11.6 11.8 12.6 13.5 13.1 12.7 11.4 9.0 7.4 7.3 8.7 8.2 7.1 7.2 7.4 7.5 7.7 7.4 nan nan nan